DateTime,F1_A11,F1_S11,BsB_S11,BsG_S11,BsR_S11,BbsB_S11,BbsG_S11,BbsR_S11,BaB_A11,BaG_A11,BaR_A11,T_S11,U_S11,P_S11,T1_A11
2016-01-08T00:00:00Z,0000380,21000600,,,,,,,,,,24.7,00.0,0659.4,34.3
2016-01-08T00:01:00Z,0000380,21000600,,,,,,,,,,24.7,00.0,0659.4,34.3
2016-01-08T00:02:00Z,0000380,21000600,,,,,,,,,,24.7,00.0,0659.4,34.3
2016-01-08T00:03:00Z,0000380,61000600,,,,,,,,,,24.7,00.0,0659.4,34.3
2016-01-08T00:04:00Z,0000380,41000600,0000.66,-000.27,0000.06,0000.46,-000.10,0000.11,0000.08,-000.08,-000.26,24.8,00.0,0660.1,34.3
2016-01-08T00:05:00Z,0000380,01000600,-000.08,-000.18,0000.23,0000.54,-000.14,-000.13,-000.09,-000.05,0000.15,24.8,00.0,0660.2,34.3
2016-01-08T00:06:00Z,0000380,01000600,0000.02,0000.45,0000.62,0000.60,0000.03,0000.41,0000.16,0000.24,-000.00,24.8,00.0,0660.2,34.3
2016-01-08T00:07:00Z,0000380,01000600,0000.29,0000.57,-000.12,0000.25,0000.03,-000.26,0000.05,-000.07,-000.13,24.8,00.0,0660.2,34.3
2016-01-08T00:08:00Z,0000380,01000600,0000.63,0000.27,0000.62,0000.88,0000.52,0000.38,-000.14,-000.14,0000.12,24.8,00.0,0660.2,34.3
2016-01-08T00:09:00Z,0000380,01000600,0000.79,0000.35,0000.68,0000.13,0000.21,-000.10,0000.29,0000.22,-000.06,24.8,00.0,0660.2,34.3
2016-01-08T00:10:00Z,0000380,01000600,0000.12,0000.35,0000.04,0000.68,0000.05,-000.22,-000.06,0000.00,0000.09,24.8,00.0,0660.2,34.3
2016-01-08T00:11:00Z,0000380,01000600,0000.39,-000.11,0000.94,-000.37,0000.14,0000.03,-000.03,0000.12,0000.15,24.8,00.0,0660.2,34.3
2016-01-08T00:12:00Z,0000380,01000600,0000.84,0000.70,0000.68,0000.86,-000.16,-000.02,-000.06,-000.11,-000.11,24.8,00.0,0660.2,34.3
2016-01-08T00:13:00Z,0000380,01000600,0000.56,0000.55,0000.63,-000.05,-000.06,0000.29,0000.09,0000.07,-000.03,24.8,00.0,0660.2,34.3
2016-01-08T00:14:00Z,0000380,01000600,0000.83,-000.34,0000.80,-000.67,-000.02,0000.14,0000.12,0000.08,-000.05,24.8,00.0,0660.2,34.3
2016-01-08T00:15:00Z,0000380,01000600,0000.46,0000.11,0000.43,0000.41,0000.02,0000.08,-000.10,-000.01,0000.10,24.8,00.0,0660.2,34.3
2016-01-08T00:16:00Z,0000380,01000600,0000.55,-000.24,0000.37,0000.46,-000.17,-000.10,0000.07,0000.10,-000.09,24.8,00.0,0660.2,34.3
2016-01-08T00:17:00Z,0000380,01000600,0000.46,-000.33,0000.43,0000.10,0000.16,0000.30,0000.00,-000.04,0000.16,24.8,00.0,0660.2,34.3
2016-01-08T00:18:00Z,0000380,01000600,0000.11,0001.06,0000.59,0000.51,0000.22,-000.08,0000.12,-000.00,-000.20,24.8,00.0,0660.2,34.3
2016-01-08T00:19:00Z,0000380,01000600,0000.91,0000.76,0000.93,0000.24,0000.40,0000.27,-000.01,0000.20,0000.30,24.8,00.0,0660.2,34.3
2016-01-08T00:20:00Z,0000380,01000600,0000.76,0000.59,0000.64,0000.73,0000.24,0000.38,0000.03,-000.10,-000.03,24.8,00.0,0660.2,34.3
2016-01-08T00:21:00Z,0000380,01000600,-000.07,0000.10,0000.87,0000.32,-000.19,0000.37,0000.18,0000.06,0000.27,24.9,00.0,0660.2,34.3
2016-01-08T00:22:00Z,0000380,01000600,0000.59,0000.86,0000.58,0000.11,-000.32,-000.21,0000.04,0000.03,-000.20,24.9,00.0,0660.2,34.3
2016-01-08T00:23:00Z,0000380,01000600,0001.29,0000.36,0000.71,0000.60,-000.02,-000.18,-000.14,0000.08,-000.06,24.8,00.0,0660.2,34.3
2016-01-08T00:24:00Z,0000380,01000600,0001.14,0000.63,0000.28,0000.64,0000.38,0000.05,0000.26,0000.16,0000.15,24.8,00.0,0660.2,34.3
2016-01-08T00:25:00Z,0000380,01000600,-000.04,0000.42,0000.49,-000.02,-000.14,0000.65,-000.14,0000.01,0000.26,24.9,00.0,0660.2,34.3
2016-01-08T00:26:00Z,0000380,01000600,0000.06,0000.10,0000.61,0000.02,-000.29,0000.29,-000.14,-000.12,-000.17,24.9,00.0,0660.2,34.3
2016-01-08T00:27:00Z,0000380,01000600,-000.47,0000.39,0000.25,0000.62,0000.19,0000.35,0000.23,0000.12,-000.25,24.9,00.0,0660.2,34.3
2016-01-08T00:28:00Z,0000380,01000600,0000.91,0000.06,0000.86,0000.49,-000.51,0000.11,0000.12,0000.05,0000.12,24.9,00.0,0660.2,34.3
2016-01-08T00:29:00Z,0000380,01000600,0001.04,0000.46,0000.62,0000.49,0000.14,0000.22,-000.10,0000.08,-000.03,24.9,00.0,0660.1,34.3
2016-01-08T00:30:00Z,0000380,01000600,0000.82,0000.47,0000.25,0000.68,-000.30,-000.02,0000.08,-000.08,-000.02,24.9,00.0,0660.2,34.3
2016-01-08T00:31:00Z,0000380,01000600,0000.95,0000.61,0000.69,0000.03,0000.13,0000.21,0000.23,0000.13,0000.34,24.9,00.0,0660.1,34.3
2016-01-08T00:32:00Z,0000380,01000600,0000.39,0000.15,0000.47,0000.48,0000.33,0000.14,-000.18,0000.05,-000.12,25.0,00.0,0660.1,34.3
2016-01-08T00:33:00Z,0000380,01000600,0000.26,0000.33,0000.74,0000.11,0000.36,0000.14,0000.22,0000.05,-000.06,25.0,00.0,0660.1,34.3
2016-01-08T00:34:00Z,0000380,01000600,-000.53,0000.79,0000.86,0000.61,0000.59,0000.30,-000.08,-000.06,0000.05,25.0,00.0,0660.1,34.3
2016-01-08T00:35:00Z,0000380,01000600,0000.99,0001.00,0000.30,-000.02,0000.16,-000.11,0000.10,0000.11,0000.03,25.0,00.0,0660.2,34.3
2016-01-08T00:36:00Z,0000380,01000600,0000.84,0000.68,0000.11,0000.38,0000.14,0000.18,0000.14,-000.01,0000.38,25.0,00.0,0660.2,34.3
2016-01-08T00:37:00Z,0000380,01000600,0000.82,-000.35,0000.50,0001.21,0000.10,0000.26,-000.14,-000.10,-000.29,25.0,00.0,0660.1,34.3
2016-01-08T00:38:00Z,0000380,01000600,0000.73,0000.56,0000.59,0000.37,0000.21,0000.56,0000.07,0000.25,0000.06,25.0,00.0,0660.1,34.3
2016-01-08T00:39:00Z,0000380,01000600,0000.32,0000.39,0000.23,0000.03,0000.41,0000.26,0000.00,-000.06,0000.44,25.0,00.0,0660.1,34.3
2016-01-08T00:40:00Z,0000380,01000600,-000.04,0000.51,0000.69,0000.49,0000.00,0000.14,0000.36,0000.07,-000.35,25.0,00.0,0660.1,34.3
2016-01-08T00:41:00Z,0000380,01000600,-000.04,0000.62,0000.26,0000.41,0000.24,0000.02,-000.09,0000.10,0000.18,25.0,00.0,0660.1,34.3
2016-01-08T00:42:00Z,0000380,01000600,0000.19,0000.28,0000.20,0000.84,-000.38,-000.16,0000.15,0000.13,0000.07,25.0,00.0,0660.1,34.3
2016-01-08T00:43:00Z,0000380,01000600,0000.51,0000.72,0000.81,0000.59,-000.22,0000.19,0000.10,0000.06,0000.19,25.0,00.0,0660.0,34.3
2016-01-08T00:44:00Z,0000380,01000600,0000.73,-000.43,0000.58,0000.83,0000.22,0000.13,0000.18,0000.01,-000.29,25.0,00.0,0660.0,34.3
2016-01-08T00:45:00Z,0000380,01000600,0000.18,0000.37,0000.42,0000.40,0000.11,0000.16,-000.07,0000.09,-000.00,25.0,00.0,0660.0,34.3
2016-01-08T00:46:00Z,0000380,01000600,0000.16,0000.06,0000.22,0000.29,0000.08,-000.11,0000.05,0000.05,0000.19,25.0,00.0,0660.0,34.3
2016-01-08T00:47:00Z,0000380,01000600,0000.80,0000.38,0000.33,-000.21,0000.48,-000.03,0000.08,-000.14,0000.15,25.0,00.0,0660.0,34.3
2016-01-08T00:48:00Z,0000380,01000600,0000.47,0000.11,0000.10,0000.57,0000.63,0000.05,-000.08,0000.22,-000.14,25.0,00.0,0659.9,34.3
2016-01-08T00:49:00Z,0000380,01000600,-000.20,0000.16,0000.59,0000.10,0000.11,0000.02,-000.06,-000.06,-000.23,25.0,00.0,0659.9,34.3
2016-01-08T00:50:00Z,0000380,01000600,0000.00,0001.14,0000.52,-000.10,0000.11,0000.00,0000.23,0000.24,0000.65,25.0,00.0,0659.9,34.3
2016-01-08T00:51:00Z,0000380,01000600,-000.51,0001.19,0000.66,0000.80,-000.24,-000.24,0000.04,-000.05,-000.35,25.0,00.0,0659.9,34.3
2016-01-08T00:52:00Z,0000380,01000600,0000.39,0000.84,0000.92,0000.73,0000.11,0000.11,0000.14,0000.13,0000.08,25.0,00.0,0659.9,34.3
2016-01-08T00:53:00Z,0000380,01000600,-000.19,-000.09,0000.11,0000.21,-000.21,-000.02,0000.13,0000.02,-000.01,25.0,00.0,0659.9,34.3
2016-01-08T00:54:00Z,0000380,01000600,0000.22,0000.11,0000.13,-000.27,0000.32,-000.08,0000.02,0000.15,0000.43,25.0,00.0,0660.0,34.3
2016-01-08T00:55:00Z,0000380,01000600,0001.10,0000.20,0000.59,0000.08,0000.38,0000.14,-000.12,-000.03,-000.07,25.0,00.0,0659.9,34.3
2016-01-08T00:56:00Z,0000380,01000600,0001.39,0000.11,0000.38,0000.06,0000.08,-000.03,0000.24,0000.09,-000.12,25.0,00.0,0660.0,34.3
2016-01-08T00:57:00Z,0000380,41000600,,,,,,,,,,,,0659.9,34.3
2016-01-08T00:58:00Z,0000380,61000600,,,,,,,,,,25.0,00.0,0659.2,34.3
2016-01-08T00:59:00Z,0000380,21000600,,,,,,,,,,25.0,00.0,0659.2,34.3
2016-01-08T01:00:00Z,0000380,21000600,,,,,,,,,,25.0,00.0,0659.2,34.3
2016-01-08T01:01:00Z,0000380,21000600,,,,,,,,,,25.0,00.0,0659.2,34.3
2016-01-08T01:02:00Z,0000380,21000600,,,,,,,,,,25.0,00.0,0659.2,34.3
2016-01-08T01:03:00Z,0000380,61000600,,,,,,,,,,25.0,00.0,0659.2,34.3
2016-01-08T01:04:00Z,0000380,41000600,-000.60,0000.42,0000.39,-000.19,-000.11,0000.11,0000.47,0000.08,0000.10,25.1,00.0,0659.9,34.3
2016-01-08T01:05:00Z,0000380,01000600,0000.56,0000.02,0000.21,0000.30,0000.30,0000.21,-000.20,-000.01,0000.29,25.1,00.0,0660.0,34.3
2016-01-08T01:06:00Z,0000380,01000600,0001.68,0000.58,-000.12,0000.11,0000.16,-000.40,0000.20,0000.18,0000.09,25.1,00.0,0660.0,34.3
2016-01-08T01:07:00Z,0000380,01000600,0000.85,0000.48,-000.26,0000.06,-000.08,-000.34,0000.14,-000.04,-000.06,25.1,00.0,0660.0,34.3
2016-01-08T01:08:00Z,0000380,01000600,0000.58,0000.15,0000.34,0000.29,0000.21,0000.65,-000.23,0000.16,-000.47,25.1,00.0,0660.0,34.3
2016-01-08T01:09:00Z,0000380,01000600,0000.61,0000.57,0000.37,-000.26,-000.03,-000.26,0000.24,0000.14,0000.68,25.1,00.0,0660.0,34.3
2016-01-08T01:10:00Z,0000380,01000600,-000.08,0000.57,-000.02,0000.13,0000.17,-000.06,-000.01,-000.10,0000.11,25.1,00.0,0660.0,34.3
2016-01-08T01:11:00Z,0000380,01000600,0000.97,0000.25,-000.03,0000.10,0000.71,-000.29,0000.24,-000.03,0000.00,25.1,00.0,0660.0,34.3
2016-01-08T01:12:00Z,0000380,01000600,0001.25,0001.25,0000.08,-000.18,0000.32,-000.05,0000.06,0000.26,0000.03,25.1,00.0,0660.0,34.3
2016-01-08T01:13:00Z,0000380,01000600,0000.49,0000.38,-000.09,0000.54,0000.19,0000.03,-000.04,0000.01,-000.09,25.2,00.0,0660.0,34.3
2016-01-08T01:14:00Z,0000380,01000600,0000.87,0000.24,0000.08,-000.06,0000.17,-000.22,0000.12,0000.04,0000.28,25.2,00.0,0660.0,34.3
2016-01-08T01:15:00Z,0000380,01000600,0000.53,0000.02,0000.31,0000.38,0000.19,-000.19,-000.04,-000.04,-000.09,25.2,00.0,0660.0,34.3
2016-01-08T01:16:00Z,0000380,01000600,0000.45,0000.68,0000.50,-000.27,0000.41,-000.05,0000.10,0000.22,-000.12,25.2,00.0,0660.0,34.3
2016-01-08T01:17:00Z,0000380,01000600,0000.71,0000.37,0000.22,0000.13,0000.06,0000.26,0000.03,-000.19,0000.09,25.1,00.0,0660.0,34.3
2016-01-08T01:18:00Z,0000380,01000600,-000.04,-000.11,0000.30,-000.11,0000.52,-000.08,0000.14,0000.15,0000.04,25.2,00.0,0660.0,34.3
2016-01-08T01:19:00Z,0000380,01000600,0001.19,0000.46,0000.18,0000.13,0000.35,0000.24,0000.22,0000.23,-000.11,25.2,00.0,0660.0,34.3
2016-01-08T01:20:00Z,0000380,01000600,0001.05,0000.74,0000.13,0000.27,0000.44,-000.19,-000.08,0000.08,0000.19,25.2,00.0,0660.0,34.3
2016-01-08T01:21:00Z,0000380,01000600,0000.47,0000.49,0000.34,-000.40,0000.46,0000.08,0000.21,-000.10,-000.04,25.2,00.0,0660.0,34.3
2016-01-08T01:22:00Z,0000380,01000600,0000.49,0000.12,0000.29,-000.24,0000.56,0000.06,-000.04,0000.24,0000.13,25.2,00.0,0660.0,34.3
2016-01-08T01:23:00Z,0000380,01000600,0001.42,0000.07,0000.49,-000.35,0000.33,0000.03,0000.14,-000.05,-000.04,25.2,00.0,0660.0,34.3
2016-01-08T01:24:00Z,0000380,01000600,0001.05,0000.41,-000.17,0000.33,0000.46,-000.06,-000.01,0000.05,0000.55,25.2,00.0,0660.0,34.3
2016-01-08T01:25:00Z,0000380,01000600,0000.23,0000.47,0000.52,-000.19,0000.02,-000.14,0000.03,0000.16,-000.32,25.2,00.0,0660.0,34.3
2016-01-08T01:26:00Z,0000380,01000600,-000.13,0000.39,0000.68,-000.19,-000.03,0000.03,0000.08,0000.11,0000.32,25.2,00.0,0660.0,34.3
2016-01-08T01:27:00Z,0000380,01000600,0000.78,0000.42,0000.32,0000.24,0000.38,0000.18,0000.17,-000.09,-000.11,25.2,00.0,0660.0,34.3
2016-01-08T01:28:00Z,0000380,01000600,-000.30,0000.54,0000.37,-000.18,-000.14,0000.05,0000.31,0000.22,0000.13,25.2,00.0,0660.0,34.3
2016-01-08T01:29:00Z,0000380,01000600,0001.35,0000.93,-000.15,0000.27,0000.03,-000.10,0000.02,0000.07,-000.04,25.2,00.0,0660.0,34.3
2016-01-08T01:30:00Z,0000380,01000600,0000.22,-000.09,0000.59,-000.62,0000.62,0000.35,0000.03,-000.07,-000.21,25.2,00.0,0660.0,34.3
2016-01-08T01:31:00Z,0000380,01000600,0000.49,0000.26,0000.33,-000.18,0000.21,0000.26,0000.05,0000.14,0000.42,25.2,00.0,0660.0,34.3
2016-01-08T01:32:00Z,0000380,01000600,0000.41,0000.51,0000.09,-000.02,0000.32,-000.02,0000.21,0000.09,0000.26,25.3,00.0,0660.0,34.3
2016-01-08T01:33:00Z,0000380,01000600,0001.06,0000.51,0000.43,0000.03,0000.22,0000.16,0000.16,0000.37,-000.04,25.3,00.0,0660.0,34.3
2016-01-08T01:34:00Z,0000380,01000600,0000.49,0000.22,0000.70,-000.06,0000.44,-000.27,0000.11,-000.01,0000.05,25.2,00.0,0660.0,34.3
2016-01-08T01:35:00Z,0000380,01000600,0001.20,0000.21,0000.04,-000.16,0000.48,-000.06,-000.10,0000.13,0000.12,25.2,00.0,0660.0,34.3
2016-01-08T01:36:00Z,0000380,01000600,0000.88,0000.16,0000.23,0000.37,0000.29,0000.18,0000.44,0000.37,-000.02,25.3,00.0,0660.0,34.3
2016-01-08T01:37:00Z,0000380,01000600,0000.68,0000.45,0000.22,-000.16,-000.13,-000.29,-000.10,-000.06,0000.08,25.3,00.0,0660.0,34.3
2016-01-08T01:38:00Z,0000380,01000600,0000.48,0000.34,0000.41,0000.16,0000.43,0000.02,0000.21,-000.10,0000.21,25.3,00.0,0660.0,34.3
2016-01-08T01:39:00Z,0000380,01000600,0000.34,0000.33,0000.49,-000.33,0000.29,-000.05,-000.02,0000.15,0000.19,25.3,00.0,0660.0,34.3
2016-01-08T01:40:00Z,0000380,01000600,0000.46,0000.45,0000.61,0000.00,0000.40,0000.11,0000.02,-000.16,-000.01,25.3,00.0,0660.0,34.3
2016-01-08T01:41:00Z,0000380,01000600,0001.59,0000.48,0000.32,0000.37,0000.86,0000.19,0000.17,0000.37,-000.03,25.3,00.0,0660.0,34.3
2016-01-08T01:42:00Z,0000380,01000600,0000.52,0000.42,0000.75,0000.05,0000.08,0000.16,0000.06,0000.07,0000.12,25.3,00.0,0660.0,34.3
2016-01-08T01:43:00Z,0000380,01000600,0001.21,0000.68,0000.66,-000.69,-000.22,0000.18,0000.16,0000.09,0000.20,25.3,00.0,0660.0,34.3
2016-01-08T01:44:00Z,0000380,01000600,0000.66,0000.96,-000.07,-000.08,0000.22,-000.13,0000.24,0000.05,-000.07,25.3,00.0,0660.0,34.3
2016-01-08T01:45:00Z,0000380,01000600,0001.29,0000.50,0000.44,-000.26,0000.11,-000.22,0000.15,0000.03,0000.02,25.3,00.0,0660.0,34.3
2016-01-08T01:46:00Z,0000380,01000600,0000.85,0000.16,0000.35,-000.41,-000.02,-000.06,0000.45,0000.47,0000.29,25.3,00.0,0660.0,34.3
2016-01-08T01:47:00Z,0000380,01000600,0000.84,0000.13,0000.57,-000.56,0000.16,-000.14,-000.05,0000.03,0000.15,25.3,00.0,0660.0,34.3
2016-01-08T01:48:00Z,0000380,01000600,0000.62,0001.57,0000.49,-000.13,0000.21,-000.13,-000.03,-000.00,0000.16,25.3,00.0,0660.0,34.3
2016-01-08T01:49:00Z,0000380,01000600,0002.02,0000.69,0000.37,0000.00,0000.19,-000.10,0000.21,0000.18,-000.01,25.3,00.0,0660.0,34.3
2016-01-08T01:50:00Z,0000380,01000600,0001.41,0000.22,0000.14,-000.21,0000.32,-000.22,-000.05,0000.00,0000.25,25.3,00.0,0660.0,34.3
2016-01-08T01:51:00Z,0000380,01000600,0001.14,0000.57,0000.15,0000.14,0000.05,-000.08,-000.04,0000.12,-000.04,25.3,00.0,0660.0,34.3
2016-01-08T01:52:00Z,0000380,01000600,0000.95,0000.52,-000.05,-000.18,0000.32,0000.02,0000.29,0000.22,-000.03,25.3,00.0,0660.0,34.3
2016-01-08T01:53:00Z,0000380,01000600,0000.57,0000.88,0000.50,0000.03,0000.57,-000.03,0000.19,0000.09,0000.31,25.3,00.0,0660.0,34.3
2016-01-08T01:54:00Z,0000380,01000600,0001.68,0000.48,0000.07,0000.08,0000.11,-000.06,0000.34,0000.13,0000.05,25.3,00.0,0660.0,34.3
2016-01-08T01:55:00Z,0000380,01000600,0001.16,0000.45,0000.63,-000.19,0000.16,0000.26,-000.19,0000.04,-000.07,25.3,00.0,0660.0,34.3
2016-01-08T01:56:00Z,0000380,01000600,0001.35,0000.49,0000.32,-000.03,0000.16,0000.13,0000.16,0000.10,-000.05,25.3,00.0,0660.0,34.3
2016-01-08T01:57:00Z,0000380,41000600,,,,,,,,,,,,0660.0,34.3
2016-01-08T01:58:00Z,0000380,61000600,,,,,,,,,,25.3,00.0,0659.2,34.3
2016-01-08T01:59:00Z,0000380,21000600,,,,,,,,,,25.3,00.0,0659.2,34.3
2016-01-08T02:00:00Z,0000380,21000600,,,,,,,,,,25.3,00.0,0659.2,34.4
2016-01-08T02:01:00Z,0000380,21000600,,,,,,,,,,25.3,00.0,0659.2,34.4
2016-01-08T02:02:00Z,0000380,21000600,,,,,,,,,,25.3,00.0,0659.2,34.4
2016-01-08T02:03:00Z,0000380,61000600,,,,,,,,,,25.3,00.0,0659.2,34.4
2016-01-08T02:04:00Z,0000380,41000600,0000.51,0000.42,0000.17,0000.61,0000.17,0000.27,0000.25,0000.22,0000.34,25.5,00.0,0659.9,34.4
2016-01-08T02:05:00Z,0000380,01000600,0000.93,0001.03,0000.35,-000.10,0000.06,0000.24,0000.14,0000.07,-000.05,25.4,00.0,0660.0,34.4
2016-01-08T02:06:00Z,0000380,01000600,0001.59,0000.71,0000.32,0000.13,0000.25,-000.06,0000.16,0000.27,0000.22,25.5,00.0,0660.0,34.4
2016-01-08T02:07:00Z,0000380,01000600,0000.69,0000.66,0000.52,-000.14,0000.08,0000.11,0000.52,0000.38,0000.32,25.5,00.0,0660.0,34.4
2016-01-08T02:08:00Z,0000380,01000600,0001.02,0000.58,0000.59,0000.16,-000.27,0000.14,-000.10,-000.07,0000.10,25.5,00.0,0659.9,34.4
2016-01-08T02:09:00Z,0000380,01000600,0000.75,0001.04,0000.51,0000.06,-000.06,-000.06,0000.43,0000.45,0000.00,25.5,00.0,0659.9,34.4
2016-01-08T02:10:00Z,0000380,01000600,0001.11,0001.12,0000.32,0000.45,0000.40,0000.38,-000.02,-000.15,0000.27,25.5,00.0,0659.9,34.4
2016-01-08T02:11:00Z,0000380,01000600,0000.00,0000.75,0000.56,0000.35,0000.03,0000.46,0000.19,0000.21,0000.21,25.5,00.0,0659.9,34.4
2016-01-08T02:12:00Z,0000380,01000600,0001.43,0000.71,0000.93,0000.24,0000.43,0000.19,0000.29,0000.24,0000.08,25.5,00.0,0659.9,34.4
2016-01-08T02:13:00Z,0000380,01000600,0001.24,0000.92,0000.75,0000.14,0000.35,0000.37,0000.14,0000.04,-000.32,25.5,00.0,0659.9,34.4
2016-01-08T02:14:00Z,0000380,01000600,0000.76,0000.62,0000.64,0000.11,0000.40,0000.10,-000.26,0000.02,0000.08,25.5,00.0,0659.9,34.4
2016-01-08T02:15:00Z,0000380,01000600,0000.74,0001.04,0000.19,-000.40,0000.00,0000.02,0000.09,-000.25,-000.08,25.5,00.0,0659.9,34.4
2016-01-08T02:16:00Z,0000380,01000600,0000.64,0000.47,0000.47,0000.13,-000.03,0000.26,0000.02,0000.19,0000.02,25.5,00.0,0659.9,34.4
2016-01-08T02:17:00Z,0000380,01000600,0001.82,0001.61,0000.05,0000.18,0000.27,0000.08,0000.18,0000.18,0000.28,25.5,00.0,0659.9,34.4
2016-01-08T02:18:00Z,0000380,01000600,0000.51,0000.72,0000.76,-000.42,0000.02,-000.02,0000.09,-000.05,-000.30,25.5,00.0,0659.9,34.4
2016-01-08T02:19:00Z,0000380,01000600,0001.80,0000.77,0000.80,0000.61,0000.10,0000.05,0000.25,0000.17,0000.23,25.5,00.0,0659.9,34.4
2016-01-08T02:20:00Z,0000380,01000600,0001.58,0000.92,0000.93,0000.32,-000.21,0000.16,0000.34,0000.31,0000.70,25.5,00.0,0659.9,34.4
2016-01-08T02:21:00Z,0000380,01000600,0000.64,0000.85,0000.09,0000.10,0000.35,-000.14,0000.30,0000.29,-000.10,25.5,00.0,0659.9,34.4
2016-01-08T02:22:00Z,0000380,01000600,0000.75,0000.60,0000.28,-000.13,0000.08,0000.03,0000.32,0000.23,0000.43,25.5,00.0,0659.9,34.4
2016-01-08T02:23:00Z,0000380,01000600,0001.40,0000.82,0000.36,0000.30,0000.13,-000.03,0000.59,0000.77,0000.39,25.5,00.1,0659.9,34.4
2016-01-08T02:24:00Z,0000380,01000600,0001.41,0000.93,0000.59,-000.40,0000.33,0000.29,0000.15,0000.20,-000.09,25.5,00.2,0659.9,34.4
2016-01-08T02:25:00Z,0000380,01000600,0001.10,0000.76,0000.75,0000.46,0000.21,0000.14,-000.10,-000.25,-000.02,25.5,00.2,0659.9,34.4
2016-01-08T02:26:00Z,0000380,01000600,0000.81,0000.40,0000.68,0000.46,0000.08,0000.24,0000.28,0000.32,0000.05,25.5,00.1,0659.9,34.4
2016-01-08T02:27:00Z,0000380,01000600,0001.55,0000.60,0000.57,0000.43,0000.08,0000.29,-000.07,-000.17,-000.07,25.5,00.0,0659.9,34.4
2016-01-08T02:28:00Z,0000380,01000600,0000.54,0000.69,0000.18,0000.02,0000.14,0000.32,-000.08,0000.03,0000.05,25.5,00.0,0659.9,34.4
2016-01-08T02:29:00Z,0000380,01000600,0001.50,0001.36,0000.49,0000.08,0000.14,-000.06,0000.10,0000.09,0000.29,25.5,00.0,0659.9,34.4
2016-01-08T02:30:00Z,0000380,01000600,0001.49,0000.98,0000.87,0000.65,0000.19,0000.42,0000.03,0000.01,-000.22,25.5,00.0,0659.9,34.4
2016-01-08T02:31:00Z,0000380,01000600,0001.69,0000.94,0000.39,-000.02,0000.17,0000.13,0000.18,0000.28,0000.23,25.5,00.0,0659.9,34.4
2016-01-08T02:32:00Z,0000380,01000600,0001.05,0001.03,0000.10,-000.14,-000.06,0000.35,0000.17,0000.26,0000.10,25.5,00.0,0659.9,34.4
2016-01-08T02:33:00Z,0000380,01000600,0001.54,0001.09,-000.03,0000.27,0000.24,0000.11,0000.12,-000.21,-000.01,25.5,00.0,0659.9,34.4
2016-01-08T02:34:00Z,0000380,01000600,0000.55,0000.67,0000.37,-000.40,0000.13,-000.08,0000.22,0000.33,0000.33,25.5,00.0,0660.0,34.4
2016-01-08T02:35:00Z,0000380,01000600,0001.81,0001.22,0000.85,-000.16,0000.19,0000.46,0000.32,0000.01,0000.02,25.5,00.0,0660.0,34.4
2016-01-08T02:36:00Z,0000380,01000600,0001.03,0000.87,0000.81,0000.05,0000.08,0000.02,-000.23,-000.08,-000.01,25.6,00.0,0660.0,34.4
2016-01-08T02:37:00Z,0000380,01000600,0001.77,0000.91,0000.36,0000.46,0000.48,-000.13,0000.06,0000.12,-000.17,25.6,00.0,0660.0,34.4
2016-01-08T02:38:00Z,0000380,01000600,0000.57,0001.10,0000.25,-000.21,-000.29,0000.21,0000.35,0000.23,0000.20,25.6,00.0,0660.0,34.4
2016-01-08T02:39:00Z,0000380,01000600,0002.09,0000.74,0000.64,0000.54,0000.03,-000.10,-000.03,0000.12,0000.11,25.6,00.0,0660.0,34.4
2016-01-08T02:40:00Z,0000380,01000600,0001.63,0001.02,0000.83,0001.39,-000.11,0000.00,0000.06,-000.00,0000.23,25.6,00.0,0660.0,34.4
2016-01-08T02:41:00Z,0000380,01000600,0001.58,0001.15,0000.19,0000.13,0000.11,0000.10,0000.25,0000.35,0000.21,25.6,00.0,0660.0,34.4
2016-01-08T02:42:00Z,0000380,01000600,0000.98,0000.68,0000.36,-000.14,0000.17,0000.08,0000.43,0000.32,-000.16,25.6,00.0,0660.0,34.4
2016-01-08T02:43:00Z,0000380,01000600,0001.78,0001.23,0000.60,0000.26,0000.22,-000.03,0000.61,0000.37,0000.66,25.6,00.0,0660.0,34.4
2016-01-08T02:44:00Z,0000380,01000600,0000.77,0001.00,0000.60,-000.26,0000.22,0000.13,-000.07,0000.15,0000.25,25.6,00.1,0660.0,34.4
2016-01-08T02:45:00Z,0000380,01000600,0001.66,0000.84,0000.52,0000.43,0000.43,-000.10,-000.14,-000.36,-000.21,25.6,00.0,0660.0,34.4
2016-01-08T02:46:00Z,0000380,01000600,0001.05,0000.89,0000.10,-000.18,0000.16,0000.19,0000.31,0000.44,0000.12,25.6,00.0,0659.9,34.4
2016-01-08T02:47:00Z,0000380,01000600,0001.40,0000.57,0000.37,0000.56,0000.05,-000.02,0000.22,0000.10,0000.03,25.6,00.0,0660.0,34.4
2016-01-08T02:48:00Z,0000380,01000600,0001.50,0001.04,0000.37,0000.06,0000.48,0000.02,0000.15,0000.09,0000.11,25.6,00.0,0659.9,34.4
2016-01-08T02:49:00Z,0000380,01000600,0000.81,0000.55,0000.63,-000.08,0000.57,0000.43,0000.08,-000.11,-000.16,25.6,00.0,0660.0,34.4
2016-01-08T02:50:00Z,0000380,01000600,0002.01,0000.93,0000.92,0000.35,0000.11,0000.29,0000.19,0000.31,0000.62,25.6,00.0,0659.9,34.4
2016-01-08T02:51:00Z,0000380,01000600,0001.07,0000.87,0000.39,-000.19,-000.10,0000.35,0000.25,0000.29,0000.14,25.6,00.1,0659.9,34.4
2016-01-08T02:52:00Z,0000380,01000600,0001.35,0000.48,0000.67,-000.03,0000.19,0000.13,-000.19,0000.01,-000.30,25.6,00.1,0659.9,34.4
2016-01-08T02:53:00Z,0000380,01000600,0001.50,0001.23,0000.24,-000.02,0000.51,0000.03,0000.35,0000.26,0000.39,25.6,00.0,0659.9,34.4
2016-01-08T02:54:00Z,0000380,01000600,0001.80,0001.10,0000.05,-000.40,0000.24,0000.10,0000.32,-000.04,-000.07,25.6,00.0,0659.9,34.4
2016-01-08T02:55:00Z,0000380,01000600,0000.48,0001.40,0000.96,-000.27,0000.21,0000.51,-000.20,0000.03,0000.08,25.6,00.0,0659.9,34.4
2016-01-08T02:56:00Z,0000380,01000600,0001.59,0001.58,0000.88,-000.11,-000.02,-000.03,-000.01,0000.02,-000.05,25.6,00.0,0659.9,34.4
2016-01-08T02:57:00Z,0000380,41000600,,,,,,,,,,,,0659.9,34.4
2016-01-08T02:58:00Z,0000380,61000600,,,,,,,,,,25.5,00.0,0659.1,34.4
2016-01-08T02:59:00Z,0000380,21000600,,,,,,,,,,25.5,00.0,0659.1,34.4
2016-01-08T03:00:00Z,0000380,21000600,,,,,,,,,,25.5,00.0,0659.1,34.4
2016-01-08T03:01:00Z,0000380,21000600,,,,,,,,,,25.5,00.0,0659.1,34.4
2016-01-08T03:02:00Z,0000380,21000600,,,,,,,,,,25.5,00.0,0659.1,34.4
2016-01-08T03:03:00Z,0000380,61000600,,,,,,,,,,25.6,00.0,0659.1,34.4
2016-01-08T03:04:00Z,0000380,41000600,0001.26,0000.65,0000.63,0000.81,0000.57,-000.02,0000.06,0000.04,0000.10,25.6,00.1,0659.8,34.4
2016-01-08T03:05:00Z,0000380,01000600,0002.14,0000.50,0000.70,0000.91,-000.27,0000.18,0000.10,0000.05,-000.10,25.7,00.0,0659.9,34.4
2016-01-08T03:06:00Z,0000380,01000600,0000.90,0000.65,0000.93,-000.06,0000.13,0000.27,0000.04,0000.16,0000.10,25.7,00.1,0659.8,34.4
2016-01-08T03:07:00Z,0000380,01000600,0001.00,0000.80,0000.78,0001.17,-000.06,-000.21,0000.24,0000.03,-000.01,25.7,00.0,0659.8,34.4
2016-01-08T03:08:00Z,0000380,01000600,0000.61,0001.33,0000.89,0001.09,0000.41,-000.06,-000.05,0000.14,0000.12,25.7,00.0,0659.8,34.4
2016-01-08T03:09:00Z,0000380,01000600,0000.99,-000.09,0000.38,-000.24,0000.29,-000.27,-000.06,-000.20,-000.02,25.8,00.0,0659.8,34.4
2016-01-08T03:10:00Z,0000380,01000600,0001.56,0000.38,0000.70,0000.83,0000.29,-000.26,0000.18,0000.20,0000.04,25.8,00.0,0659.8,34.4
2016-01-08T03:11:00Z,0000380,01000600,0001.80,0000.78,0000.49,0000.29,0000.49,0000.34,0000.19,0000.33,0000.38,25.8,00.0,0659.8,34.4
2016-01-08T03:12:00Z,0000380,01000600,0001.25,0000.54,0001.08,0000.37,0000.08,-000.18,0000.28,0000.31,0000.19,25.8,00.0,0659.9,34.4